Regional Weather Roundup
Issued by NWS

Home | Current Version | Previous Version | Text Only | Print | Product List | Glossary On
Versions: 1 2 3 4 5 6 7 8 9 10 11 12 13 14 15 16 17 18 19 20 21 22 23 24 25 26 27 28 29 30 31 32 33 34 35 36 37 38 39 40 41 42 43 44 45 46 47 48 49 50
000
ASHW40 PHFO 180210
RWRHI

WEATHER ROUNDUP FOR HAWAII
NATIONAL WEATHER SERVICE HONOLULU HI
400 PM HST WED DEC 17 2014

THIS IS AN AUTOMATED REPORT THAT HAS NOT BEEN QUALITY CONTROLLED.

NOTE..."FAIR" INDICATES FEW OR NO CLOUDS BELOW 12,000 FEET WITH NO
SIGNIFICANT WEATHER AND/OR OBSTRUCTIONS TO VISIBILITY.

* - THESE SITES REPORT LIMITED FIELDS

HIZ001>004-180300-
KAUAI-NIIHAU-

CITY           SKY/WX    TMP DP  RH WIND       PRES   REMARKS
LIHUE APT      CLOUDY    75  70  84 NE13      30.12F
PORT ALLEN*      N/A     81 N/A N/A E22G29      N/A
POIPU*           N/A     79 N/A N/A NE9G20      N/A
PRINCEVILLE*     N/A     73 N/A N/A MISG        N/A
KOKOLE POINT*  NOT AVBL
MOLOAA DAIRY*  NOT AVBL
WAIMEA HTS*    NOT AVBL
PUU OPAE*      NOT AVBL
PUU LUA*       NOT AVBL
MAKAHA RIDGE*  NOT AVBL
$$

HIZ005>011-180300-
OAHU-

CITY           SKY/WX    TMP DP  RH WIND       PRES   REMARKS
HONOLULU       PTSUNNY   81  66  60 NE16G22   30.07S
KALAELOA       MOSUNNY   79  65  62 E8        30.09R
KANEOHE MCB    PTSUNNY   77  68  73 E14G21    30.11R
WHEELER FIELD  PTSUNNY   74  65  73 E7        30.12R
BELLOWS*       NOT AVBL
KAHUKU*        NOT AVBL
WHEELER*       NOT AVBL
WAIANAE HARBOR NOT AVBL
DILLINGHAM*      N/A     79  64  61 NE8G17      N/A
KAHUKU TRN*      N/A     73  66  78 E13G26      N/A
KAWAILOA*        N/A     72  64  78 E9G17       N/A
KII*             N/A     77  68  73 E18G26      N/A
MAKUA RANGE*     N/A     81  63  54 NE13G18     N/A
OAHU FOREST NW NOT AVBL
SCHOFIELD BRK*   N/A     75  66  73 MISG        N/A
SCHOFIELD S*   NOT AVBL
WAIANAE VLY*   NOT AVBL
KUAOKALA*      NOT AVBL
HONOULIUULI*   NOT AVBL
MOKUOLOE IS*     N/A    N/A N/A N/A MISG        N/A
PALEHUA*       NOT AVBL
WAIAWA PHB*    NOT AVBL
$$

HIZ012>013-180300-
MOLOKAI-

CITY           SKY/WX    TMP DP  RH WIND       PRES   REMARKS
MOLOKAI AIRPT  MOSUNNY   76  68  76 NE20G30   30.08F
KALAUPAPA      NOT AVBL
MAKAPULAPAI*   NOT AVBL
MOLOKAI 1*     NOT AVBL
PUU ALII*      NOT AVBL
$$

HIZ016-180300-
KAHOOLAWE-

CITY           SKY/WX    TMP DP  RH WIND       PRES   REMARKS
KAHOOLAWE*     NOT AVBL
HAKIOAWA*      NOT AVBL
HONOKANAIA*      N/A     79  64  59 NE16G26   30.09R
KANELOA*         N/A     77  68  73 E20G33      N/A
KEALIALALO*    NOT AVBL
LUA MAKIKA*    NOT AVBL
$$

HIZ014>015-180300-
LANAI-

CITY           SKY/WX    TMP DP  RH WIND       PRES   REMARKS
LANAI CITY     PTSUNNY   76  66  71 NE15      30.12S
LANAI 1*       NOT AVBL
$$

HIZ017>028-180300-
MAUI-

CITY           SKY/WX    TMP DP  RH WIND       PRES   REMARKS
KAHULUI        LGT RAIN  75  69  81 NE15G21   30.09S
KAPALUA-W MAUI LGT RAIN  73  68  83 NE14      30.09S
HANA AIRPORT   CLOUDY    75  68  78 E14       30.14S
HANA*          NOT AVBL
HALEAKALA SUMM   N/A     55   5  13 SE20        N/A
MAALAEA BAY*   NOT AVBL
HALEAKALA*     NOT AVBL
KAUPO GAP*     NOT AVBL
KULA 1*          N/A     63  54  72 NW3G9       N/A
$$

HIZ023>026-180300-
BIG ISLAND OF HAWAII COAST AND LOWER SLOPES-

CITY           SKY/WX    TMP DP  RH WIND       PRES   REMARKS
KAILUA KONA    CLOUDY    80  66  62 SW8       30.05R
HILO           PTSUNNY   77  67  71 E10       30.09S
HONOKAA*       NOT AVBL
KAWAIHAE MWT*  NOT AVBL
KAWAIHAE*        N/A     79 N/A N/A SW8         N/A
SOUTH POINT*   NOT AVBL
UPOLU AIRPORT* NOT AVBL
KAMUELA*       LGT RAIN  66  63  88 NE16      30.18R VSB 3/4
HAKALAU*         N/A     56  51  83 SE5G13      N/A
KALOKO-HONOKO* NOT AVBL
PALI 2*          N/A    N/A N/A N/A N17G28      N/A
KEALAKOMO*       N/A     66  52  59 NE21G30     N/A
KAUPULEHU*     NOT AVBL
KAPAPALA*      NOT AVBL
LOWER KAHUKU*  NOT AVBL
PUHE CS*       NOT AVBL
PUHO CS*       NOT AVBL
PTA KEAMUKU*     N/A     66  59  77 CALM        N/A
WAIKOLOA*      NOT AVBL
$$

HIZ027>028-180300-
BIG ISLAND OF HAWAII INTERIOR AND SUMMMITS-

CITY           SKY/WX    TMP DP  RH WIND       PRES   REMARKS
BRADSHAW FIELD PTSUNNY   63  51  64 SE9G15    30.39R
MK VISITOR CEN NOT AVBL
MAUNA KEA*       N/A     48   3  15 N3          N/A
MAUNA LOA*       N/A     52  39  62 MISG        N/A
MAUNA LOA 1*   NOT AVBL
PTA KIPUKA*      N/A     61  55  82 NW7G14      N/A
PTA RANGE 17*    N/A     63  54  72 NW10G18     N/A
PTA WEST*        N/A     68  57  68 NW9G16      N/A
NENE CABIN*    NOT AVBL
AHUMOA*        NOT AVBL
PTA PORTABLE*  NOT AVBL
PUU MALI*      NOT AVBL
$$

HIC003-180300-
NORTHWEST ISLANDS-

CITY           SKY/WX    TMP DP  RH WIND       PRES   REMARKS
MIDWAY ISLAND  MOSUNNY   75  68  78 SE16      30.15F
MIDWAY NOS*    NOT AVBL
FRENCH FRIGATE NOT AVBL
$$

PHZ110>124-180-180300-
BUOY REPORTS

STATION/POSITION TIME  TEMP    WIND        PRES    WAVE   SWELL
                       AIR SEA DIR/SP/G            HT/PER HT/DIR
                 (UTC) (F)     (DEG/KT/KT) (MB)    (FT/S) (FT/D)
BUOY 51001       NOT AVBL
BUOY 51101       0200   75 77   70/ 16/ 17 1020.6R   7/ 8   5/ 90
BUOY 51100       NOT AVBL
BUOY 51003       0100   78 80   80/ 10/ 14 1017.5F   7/ 8   7
BUOY 51004       0137   78 78   70/ 17/ 21 1016.2F   9/ 8   7/ 70
BARBERS PT BUOY  NOT AVBL
WAIMEA BAY BUOY  0200      78                N/A     6/13   3/340
KAILUA BAY BUOY  0200      78                N/A     7/ 8   2/ 10
LANAI BUOY       0200      78                N/A     3/12   2/200
BARBERS PT 2     0200      78                N/A     4/ 9   2/220
PAUWELA MAUI     0200      77                N/A     7/ 8   3/350
HILO             0200      78                N/A     8/ 8   3/350
KANEOHE BAY BUOY 0200      77                N/A     7/ 8   2/ 10
HANALEI KAUAI    NOT AVBL
KAHULUI HARBOR   0200   75 76   60/ 18/ 23 1019.1F
HONOLULU HARBOR  0200   79      80/  7/ 13 1018.9R
KILO NALU        NOT AVBL
HILO HARBOR      0200   78      60/  5/  9 1018.6R
MOKUOLOE         0200   76 75   80/ 14/ 18 1019.7R
NAWILIWILI       0200      76                N/A
WHOTS BUOY       NOT AVBL
BUOY 51028       NOT AVBL
$$

......................KEY........................................
  SKY/WX - SKY CONDITIONS/PRESENT WEATHER
  TMP    - TEMPERATURE IN FAHRENHEIT
  DWPT   - DEWPOINT IN FAHRENHEIT
  RH     - RELATIVE HUMIDITY IN PERCENT
  WIND   - DIRECTION AND SPEED /MPH FOR ISLANDS...KTS FOR BUOYS/
  PRES   - MEAN SEA LEVEL PRESSURE IN INCHES OF HG
  VSB    - VISIBILITY IN MILES
  HX     - HEAT INDEX
  WCI    - WIND CHILL INDEX
  VRB    - VARIABLE WIND DIRECTION
  N/A    - NOT AVAILABLE



USA.gov is the U.S. government's official web portal to all federal, state and local government web resources and services.